[Iaude] MPEC S57: 2016 SZ1

mpec at si.edu mpec at si.edu
Thu Sep 29 15:56:01 EDT 2016


M.P.E.C. 2016-S57                                Issued 2016 Sept. 26, 23:51 UT
 
     The Minor Planet Electronic Circulars contain information on unusual
         minor planets and routine data on comets.  They are published
    on behalf of Division F of the International Astronomical Union by the
          Minor Planet Center, Smithsonian Astrophysical Observatory,
                          Cambridge, MA 02138, U.S.A.

             Prepared using the Tamkin Foundation Computer Network

                              MPC at CFA.HARVARD.EDU
            URL http://www.minorplanetcenter.net/    ISSN 1523-6714


                                   2016 SZ1
 
Observations:
     K16S01Z* C2016 09 25.40083 01 10 34.48 +08 13 58.0          19.6 VqES057G96
     K16S01Z  C2016 09 25.40880 01 10 38.40 +08 16 29.5          19.7 VqES057G96
     K16S01Z  C2016 09 25.41521 01 10 41.64 +08 18 30.9          19.8 VqES057G96
     K16S01Z  C2016 09 25.41955 01 10 43.83 +08 19 54.3          19.8 VqES057G96
     K16S01Z  C2016 09 25.49131 01 11 21.54 +08 42 54.0          19.5 VqES057G96
     K16S01Z  C2016 09 25.49172 01 11 21.75 +08 43 02.2          19.7 VqES057G96
     K16S01Z  C2016 09 25.49254 01 11 22.21 +08 43 17.7          20.2 VqES057G96
     K16S01Z  C2016 09 25.93571 01 16 37.08 +11 19 17.7                qES057246
     K16S01Z  C2016 09 25.93607 01 16 37.26 +11 19 25.8                qES057246
     K16S01Z  C2016 09 25.93620 01 16 37.35 +11 19 29.0                qES057246
     K16S01Z  C2016 09 25.93645 01 16 37.46 +11 19 34.1          19.5 RqES057246
     K16S01Z KC2016 09 25.97438 01 17 03.34 +11 34 36.1          19.9 RqES057104
     K16S01Z KC2016 09 25.97731 01 17 05.30 +11 35 44.9          19.8 RqES057104
     K16S01Z KC2016 09 25.98024 01 17 07.21 +11 36 53.4          19.8 RqES057104
     K16S01Z KC2016 09 26.10984 01 18 34.90 +12 28 19.7                qES057204
     K16S01Z KC2016 09 26.11552 01 18 38.91 +12 30 38.4                qES057204
     K16S01Z KC2016 09 26.12327 01 18 44.37 +12 33 47.5          19.5 RqES057204
     K16S01Z KC2016 09 26.88550 01 31 05.29 +18 36 18.2          19.3 RqES057160
     K16S01Z KC2016 09 26.88764 01 31 07.49 +18 37 26.9          19.5 RqES057160
     K16S01Z KC2016 09 26.88872 01 31 08.59 +18 38 04.6                qES057160
     K16S01Z KC2016 09 26.88979 01 31 09.71 +18 38 41.0                qES057160
     K16S01Z KC2016 09 26.89194 01 31 11.98 +18 39 52.9          19.0 RqES057160
 
Observer details:
104 San Marcello Pistoiese.  Observer P. Bacci.  Measurers P. Bacci, L. Tesi,
    G. Fagioli.  0.60-m f/4 reflector + CCD.
160 Castelmartini.  Observers M. Jaeger, E. Prosperi, S. Prosperi, W. Vollmann.
    Measurer E. Prosperi.  0.35-m f/10 Schmidt-Cassegrain + CCD.
204 Schiaparelli Observatory.  Observer L. Buzzi.  0.60-m f/4.64 reflector
    + CCD.
246 Klet Observatory-KLENOT.  Observers M. Tichy, J. Ticha.  Measurer M. Tichy.
    1.06-m KLENOT Telescope + CCD.
G96 Mt. Lemmon Survey.  Observer D. C. Fuls.  Measurers E. J. Christensen,
    D. C. Fuls, A. R. Gibbs, A. D. Grauer, J. A. Johnson, R. A. Kowalski,
    S. M. Larson, G. J. Leonard, R. G. Matheny, R. L. Seaman, F. C. Shelly.
    1.5-m reflector + 10K CCD.
 
Orbital elements:
2016 SZ1                                                 Earth MOID = 0.0106 AU
Epoch 2016 July 31.0 TT = JDT 2457600.5                 MPC
M 293.02553              (2000.0)            P               Q
n   0.60481267     Peri.   71.83762     +0.26446707     -0.96437724
a   1.3848056      Node     2.84632     +0.83473570     +0.22589146
e   0.4003026      Incl.    6.71411     +0.48298393     +0.13765750
P   1.63           H   26.5           G   0.15           U   7
Residuals in seconds of arc
160925 G96  0.7+  0.2-    160925 246  0.1-  0.0     160926 204  0.4-  0.3+
160925 G96  0.1-  0.1+    160925 246  0.0   0.2+    160926 160  0.7+  0.1+
160925 G96  0.2+  0.3-    160925 246  0.8-  0.5-    160926 160 (0.2+  2.4-)
160925 G96  0.2+  0.5+    160925 104  0.8-  0.2-    160926 160  0.3-  0.7-
160925 G96  0.0   0.1-    160925 104  0.1+  0.1+    160926 160  0.2-  0.1+
160925 G96  0.2-  0.1+    160925 104  0.2+  0.0     160926 160  0.1+  0.3+
160925 G96  0.1-  0.3-    160926 204  0.2+  0.0
160925 246  0.7+  0.2+    160926 204  0.2+  0.3+

Ephemeris:
2016 SZ1                 a,e,i = 1.38, 0.40, 7                   q = 0.8305
Date    TT    R. A. (2000) Decl.     Delta      r     Elong.  Phase     V
2016 08 27    00 18 54.1 -14 14 52   0.2310  1.2183   151.5    23.3    24.9
...
2016 09 11    00 30 38.7 -11 57 23   0.1223  1.1227   160.5    17.4    23.1
...
2016 09 19    00 41 35.0 -07 12 20   0.06992 1.0722   165.1    14.0    21.7
...
2016 09 25    01 06 58.5 +06 16 56   0.03357 1.0352   164.3    15.2    20.0
2016 09 26    01 17 18.5 +11 47 05   0.02813 1.0291   160.5    18.9    19.8
2016 09 27    01 33 02.7 +19 43 04   0.02316 1.0231   153.7    25.7    19.5
...
2016 10 03    10 41 34.9 +50 41 18   0.02602 0.9878    60.0   118.7    23.3
...
2016 10 11    11 55 46.7 +29 38 04   0.07289 0.9439    40.3   136.8    27.1
...
2016 10 26    12 15 45.0 +21 08 26   0.1707  0.8760    42.6   129.9    28.1

A. U. Tomatic                (C) Copyright 2016 MPC           M.P.E.C. 2016-S57




More information about the Iaude mailing list